Tracking 35275 objects as of 9-Sep-2026
HD Live streaming from Space Station
objects crossing your sky now

THOR ABLESTAR DEB

Track THOR ABLESTAR DEB now!
10-day predictions


NORAD ID: 350
Int'l Code: 1961-015DQ
Launch date: June 29, 1961
Source: United States (US)
Launch site: AIR FORCE EASTERN TEST RANGE (AFETR)

Note: This is SATELLITE DEBRIS
Your satellite tracking list
Your tracking list is empty




NASA's NSSDC Master Catalog

Two Line Element Set (TLE):
1 00350U 61015DQ  26252.06397344  .00000020  00000-0  42307-4 0  9996
2 00350  66.9139  15.1507 0117873  84.9145 276.5393 14.22691089374888
Source of the keplerian elements: AFSPC